Home   Weather   Erkelenz   Past weeks

Flag for Germany Past Weather in Erkelenz, North Rhine-Westphalia, Germany — Yesterday and Last 2 Weeks

Now
59 °F

Clear.


Feels Like: 59 °F
Forecast: 62 / 77 °F
Wind: 1 mph from South

Location: Geilenkirchen Airport

Current Time: Jul 21, 2017 at 3:05:39 am

Latest Report: Jul 21, 2017 at 1:50 am


Visibility: 10 mi

Pressure: 29.98 "Hg

Humidity: 68%

Dew Point: 48 °F

Location of ErkelenzLocation

Past Weather in Erkelenz — Graph

°F

Erkelenz Temperature Yesterday

Maximum temperature yesterday: 77 °F (at 1:50 pm)
Minimum temperature yesterday: 63 °F (at 11:50 pm)
Average temperature yesterday: 70 °F

High & Low Weather Summary for the Past Weeks

 TemperatureHumidityPressure
High88 °F (Jul 19, 11:50 am)100% (Jul 12, 12:39 pm)30.24 "Hg (Jul 12, 12:39 pm)
Low45 °F (Jul 13, 4:50 am)39% (Jul 10, 2:50 pm)29.71 "Hg (Jul 12, 11:50 am)
Average67 °F72%29.98 "Hg
* Reported Jul 6 1:50 am — Jul 21 1:50 am, Erkelenz. Weather by CustomWeather, © 2017

Note: Actual official high and low records may vary slightly from our data, if they occured in-between our weather recording intervals... More about our weather records

Advertising

Erkelenz Weather History for the Previous 24 Hours

Scroll right to see more
 ConditionsComfort  
Time TempWeatherWind HumidityBarometerVisibility
1:50 am
Fri, Jul 21
59 °FClear.1 mph68%29.98 "Hg10 mi
12:50 am61 °FClear.2 mph63%29.98 "Hg10 mi
11:50 pm
Thu, Jul 20
63 °FClear.8 mph64%29.95 "Hg10 mi
10:50 pm64 °FClear.5 mph64%29.95 "Hg10 mi
9:50 pm64 °FPassing clouds.6 mph83%29.92 "HgN/A
8:50 pm66 °FSunny.10 mph83%29.89 "Hg10 mi
8:08 pm66 °FPartly sunny.15 mph78%29.89 "HgN/A
7:50 pm66 °FLight rain. Broken clouds.23 mph73%29.89 "HgN/A
7:02 pm72 °FPartly sunny.26 mph65%29.83 "HgN/A
5:50 pm77 °FPartly sunny.13 mph51%29.83 "HgN/A
4:50 pm77 °FBroken clouds.8 mph47%29.80 "HgN/A
3:50 pm77 °FBroken clouds.9 mph54%29.80 "HgN/A
2:50 pm75 °FBroken clouds.13 mph54%29.80 "HgN/A
1:50 pm77 °FBroken clouds.23 mph47%29.80 "HgN/A
12:50 pm75 °FBroken clouds.15 mph61%29.80 "HgN/A
11:50 am73 °FBroken clouds.8 mph69%29.80 "HgN/A
10:50 am72 °FBroken clouds.8 mph78%29.80 "HgN/A
9:50 am72 °FBroken clouds.7 mph83%29.80 "HgN/A
8:50 am68 °FBroken clouds.6 mph94%29.80 "HgN/A
7:50 am68 °FPartly sunny.6 mph88%29.80 "HgN/A
6:50 am66 °FPartly sunny.5 mph94%29.80 "HgN/A
5:50 am64 °FBroken clouds.5 mph94%29.80 "Hg5 mi
4:50 am66 °FThunderstorms. Partly cloudy.6 mph94%29.80 "Hg2 mi
3:50 am68 °FPassing clouds.1 mph88%29.77 "HgN/A
Weather by CustomWeather, © 2017

See weather overviewHow to use our weather pages